Theta_e
342 342 342 342 342 342 341 340 340 340 341 340 340 339 337 336 335 334 334 333 331 330 331 333 333 335 335 332 332 333 334 335 334 335 336 336 337 336 336 335 334 333 329 327 328 330 329 328 329 329 328 327 325 326 328 328 327 327 326 324 324 325 325 326 325 323 323 323 322 321 321 321 323 324 324 324 325 327 328 329 330 330 330 331 331
343 343 343 343 343 342 342 340 340 340 340 340 340 339 339 339 338 336 335 334 334 333 333 332 332 333 335 334 333 333 334 336 335 335 337 336 336 336 336 337 336 334 331 328 328 329 329 330 330 330 329 329 327 326 326 326 326 327 326 324 324 325 325 326 325 323 323 323 323 322 322 322 322 323 323 323 324 326 327 329 329 329 330 330 331
343 343 342 343 343 342 342 340 340 339 338 339 339 339 339 340 340 339 338 337 336 335 335 334 334 332 332 334 334 334 334 336 336 336 336 336 337 336 335 336 336 336 334 330 328 328 329 330 331 330 330 329 329 328 327 326 326 327 326 325 324 323 324 325 325 324 323 323 324 323 323 322 322 323 322 322 324 325 326 328 328 329 329 329 330
341 341 341 342 342 343 342 341 340 339 339 340 340 340 340 340 341 340 341 340 337 336 335 335 335 334 332 332 333 335 335 336 337 337 337 337 337 336 335 335 335 335 336 333 329 328 328 330 331 331 330 330 329 329 328 328 327 327 326 325 324 322 322 324 324 323 323 323 324 323 323 322 322 322 321 322 325 325 325 327 328 328 328 328 329
340 339 340 341 342 343 343 342 341 340 341 342 341 341 341 341 341 340 341 340 339 338 336 336 335 335 334 333 333 333 334 336 337 338 336 336 335 333 332 334 335 334 336 334 331 328 327 328 330 331 331 330 330 330 330 329 328 328 326 325 325 322 321 322 324 324 323 323 324 323 323 322 322 322 322 323 324 324 325 326 327 328 328 328 327
341 340 339 340 341 342 342 342 342 341 342 342 342 341 341 341 341 340 340 340 340 339 338 338 337 336 335 334 334 333 334 334 336 337 335 334 335 331 327 329 333 334 334 334 333 330 328 326 328 331 331 331 331 331 331 330 329 328 326 325 325 324 321 321 324 324 323 323 323 324 322 321 322 322 322 323 324 323 324 325 326 327 327 327 326
341 341 340 340 340 341 341 341 341 341 341 342 341 341 341 341 340 340 340 340 340 339 339 339 339 339 337 335 335 334 333 334 336 337 336 334 335 332 328 326 326 329 333 334 334 333 331 328 326 329 331 332 331 331 332 330 329 328 327 326 325 325 321 320 323 324 323 323 323 323 322 322 322 322 322 322 322 322 322 323 325 326 326 327 326
340 341 341 341 341 341 341 341 340 340 340 341 340 339 339 339 339 339 339 340 339 339 339 339 339 339 338 338 337 336 335 336 336 336 336 335 334 333 331 330 327 329 333 334 335 334 334 332 328 326 329 331 332 332 332 331 329 328 327 326 325 325 321 320 322 324 324 323 324 323 322 323 323 322 322 322 321 320 320 322 324 325 326 326 325
341 341 342 341 341 340 340 341 340 340 339 339 339 338 338 337 337 337 337 337 337 337 338 338 339 338 338 338 338 338 337 338 337 334 334 334 334 334 332 332 332 333 334 333 334 334 334 334 331 328 327 329 332 332 332 331 329 328 328 327 326 325 323 321 322 324 324 323 324 324 323 323 323 323 322 322 322 320 319 322 323 325 325 325 325
342 341 342 341 341 341 341 341 341 340 340 339 338 338 337 337 337 337 336 337 338 337 337 337 337 338 338 338 338 337 337 338 338 336 335 334 334 334 332 331 333 335 335 333 334 334 334 334 334 331 327 327 330 331 331 331 329 328 328 328 326 325 324 323 322 323 324 323 324 325 325 324 324 324 323 322 322 320 320 323 324 324 325 324 324
341 341 341 341 342 342 342 342 341 341 341 339 337 336 336 337 336 336 337 337 338 338 338 338 338 338 337 338 338 338 338 338 337 337 337 337 335 334 334 332 332 335 335 335 335 335 335 334 334 333 329 327 327 329 330 330 329 327 328 328 327 325 324 324 323 324 324 324 324 325 325 325 324 324 323 322 323 321 321 323 324 324 324 324 323
341 341 342 342 342 342 342 343 342 341 340 339 337 336 336 336 336 336 337 337 337 337 338 337 338 338 337 338 338 338 338 337 337 337 337 337 336 336 336 335 333 333 334 336 336 337 336 335 334 333 332 330 328 327 328 329 329 327 327 328 327 326 324 323 324 325 324 323 325 325 325 325 324 324 323 323 323 322 321 322 323 324 324 323 323
340 341 342 342 341 341 341 342 341 339 338 338 337 336 336 336 337 337 337 337 338 338 337 336 336 337 337 337 337 337 338 337 337 337 337 337 337 337 336 336 335 333 334 335 336 336 336 336 335 334 334 333 331 329 327 328 329 327 326 327 327 326 325 324 324 325 324 323 325 326 325 325 324 324 323 322 323 323 322 321 322 323 323 322 322
339 339 340 340 339 339 339 339 338 337 338 337 336 336 336 337 338 337 337 337 337 337 337 337 337 337 336 335 336 336 336 338 338 337 337 337 336 337 336 336 335 335 335 335 336 336 335 335 335 335 334 333 333 332 329 328 328 327 326 326 327 326 325 325 324 324 325 324 325 326 325 325 324 324 323 323 323 324 323 322 322 322 322 322 321
337 336 337 337 337 337 337 337 336 336 337 336 335 335 335 336 337 337 337 337 336 336 336 337 337 337 336 334 335 335 335 337 337 336 336 336 336 337 336 335 336 335 335 335 335 335 335 336 335 334 334 333 333 332 331 330 328 328 326 325 326 326 326 326 325 324 325 325 325 326 326 325 324 324 324 324 323 324 324 323 323 321 321 321 320
335 334 335 335 335 335 335 335 335 335 335 335 335 335 335 335 336 337 336 336 336 335 335 336 337 336 336 334 334 334 335 336 336 335 337 337 336 335 335 335 335 336 336 336 335 335 335 335 335 334 334 334 333 332 332 331 330 329 328 325 324 325 326 327 326 324 325 326 325 326 326 325 325 324 324 325 324 324 324 324 323 321 321 321 321
333 333 333 333 334 334 333 334 334 334 334 334 334 334 334 334 335 335 335 335 336 335 335 335 336 336 336 335 334 334 334 334 335 335 336 337 335 334 334 335 335 336 338 337 335 334 334 334 334 334 333 333 333 332 332 332 332 330 329 326 324 324 325 326 327 324 325 327 326 325 326 325 324 324 324 325 325 324 324 324 323 321 321 322 323
331 331 331 331 332 332 332 333 333 333 333 333 333 334 334 334 334 334 334 334 335 335 334 334 335 336 336 335 333 333 335 334 334 334 334 335 335 334 334 334 335 336 337 336 334 334 334 334 334 334 333 333 333 333 333 333 332 330 330 328 325 323 323 323 326 325 325 327 327 326 326 325 323 324 324 324 324 324 324 324 324 323 322 323 323
329 329 329 329 330 331 331 331 331 332 331 332 332 332 332 333 333 333 333 334 334 334 334 334 334 335 335 335 333 332 334 335 334 334 334 334 334 334 334 334 334 335 335 335 334 334 334 333 333 333 333 334 334 333 334 334 332 331 329 329 326 324 322 321 323 326 325 327 328 327 327 326 323 323 324 324 324 325 324 324 324 323 323 323 323
327 328 327 327 327 328 328 328 328 329 328 329 330 330 330 330 331 332 332 333 333 333 333 333 334 334 334 334 333 333 334 334 334 334 334 334 334 333 334 334 335 336 335 334 335 335 335 334 333 333 334 335 333 332 333 333 332 332 330 329 327 325 324 321 321 325 326 326 328 328 328 327 323 323 324 324 324 325 324 324 323 323 323 323 323
326 326 325 326 326 325 325 325 325 326 326 326 327 327 327 327 328 329 329 330 331 332 333 333 333 333 334 334 334 334 334 334 334 333 334 335 335 334 333 334 336 336 335 334 335 335 336 336 335 335 336 334 332 332 333 333 332 332 330 329 328 326 326 324 321 323 326 326 328 329 329 328 325 324 324 324 324 324 324 323 323 323 323 323 323
325 324 323 323 324 323 323 323 323 323 323 323 324 324 324 325 325 326 327 327 328 329 329 330 331 331 332 333 334 333 334 334 333 333 333 335 334 333 332 333 334 334 334 334 335 335 335 336 337 337 336 333 332 332 332 332 332 331 331 331 329 327 326 325 322 322 324 325 327 328 328 329 327 325 324 324 325 324 324 323 323 323 324 323 322
323 322 321 321 322 321 320 321 321 321 321 321 321 321 322 322 323 324 325 325 325 326 326 326 327 328 329 330 331 331 332 333 333 333 333 334 333 332 332 332 332 332 333 333 334 335 336 336 337 337 335 333 333 333 332 332 332 332 332 332 330 328 326 325 324 323 322 323 325 327 328 329 328 326 324 324 325 325 325 323 323 323 323 323 322
321 320 320 320 320 320 319 319 319 319 319 319 319 319 320 320 321 322 322 322 323 323 323 323 324 325 325 326 327 328 329 330 331 332 333 334 333 332 332 331 332 331 332 332 331 333 335 335 335 336 335 335 334 333 332 332 331 332 332 332 331 329 327 325 325 324 322 321 323 325 327 328 329 327 325 324 325 325 324 324 323 323 323 322 322
320 319 318 318 319 318 318 318 318 317 317 317 317 318 318 318 320 320 320 320 320 320 321 321 322 323 323 323 324 324 325 326 327 329 330 332 332 332 332 331 331 331 331 331 329 330 332 332 334 335 335 335 335 334 333 331 331 331 331 332 331 330 329 327 326 325 323 321 322 324 326 328 329 329 326 324 325 324 324 324 323 323 322 322 322
318 317 317 317 317 317 316 316 316 316 316 315 316 316 316 317 318 318 318 317 317 317 318 320 320 320 321 321 321 322 322 323 324 326 327 329 330 331 332 332 332 331 331 331 329 329 330 330 332 333 333 334 334 335 334 332 331 331 331 332 332 331 330 328 327 326 324 321 321 323 325 326 328 328 327 325 324 324 324 324 323 322 322 322 322
317 316 316 316 316 316 315 315 314 314 314 314 314 315 314 315 316 315 315 315 314 315 316 317 317 318 318 319 319 320 321 322 322 323 324 325 326 327 328 330 331 331 330 330 330 330 330 329 330 331 333 334 334 335 335 334 332 331 331 332 331 331 331 329 328 327 326 322 320 322 324 325 327 328 327 326 325 324 324 324 323 322 321 321 322
316 315 315 315 314 314 314 314 314 314 314 313 314 314 314 314 314 314 313 313 313 314 315 315 315 316 316 317 317 318 319 320 320 321 321 322 323 324 325 327 329 329 329 329 330 330 330 329 329 330 333 335 335 334 334 333 332 331 331 331 331 331 331 330 329 327 326 324 321 321 323 324 326 327 327 326 326 324 324 324 322 321 321 321 322
314 314 314 313 313 313 313 313 313 313 313 313 313 313 313 313 313 313 312 312 312 313 313 314 314 314 315 315 316 316 317 317 318 318 319 319 321 322 323 324 326 327 328 329 329 329 330 330 329 329 331 335 336 334 332 331 331 330 331 331 331 331 331 331 330 328 326 326 323 320 321 323 325 327 327 326 326 325 325 324 321 320 321 321 320
314 314 313 313 312 313 313 312 312 312 312 312 312 312 313 312 312 312 311 311 312 312 313 313 313 313 314 314 315 315 316 316 316 317 317 318 319 320 321 322 323 324 326 327 327 327 329 330 330 330 330 333 335 334 331 330 330 330 331 332 331 331 331 331 331 329 327 327 325 321 320 321 323 325 327 326 326 326 326 324 321 319 321 321 319
313 313 312 312 312 312 312 312 312 312 312 311 312 312 311 311 311 311 310 310 311 311 312 312 312 312 313 313 314 314 315 314 314 315 316 317 317 317 318 319 320 321 322 324 324 324 326 328 329 330 330 331 333 334 333 330 329 329 330 331 331 331 331 331 331 330 328 328 327 323 320 321 323 324 326 326 326 326 326 325 321 319 320 320 319
312 312 311 311 311 311 311 310 310 310 310 310 311 311 310 310 310 309 309 310 310 311 311 311 312 312 312 312 313 313 313 313 313 313 313 314 314 314 314 315 316 317 318 321 322 321 322 324 325 327 328 329 330 333 334 331 329 329 329 330 330 330 330 331 331 331 329 328 328 325 321 320 322 324 325 326 326 326 326 325 322 319 320 320 320
311 311 310 310 310 310 309 309 309 308 309 309 309 310 310 309 309 309 309 309 309 310 310 311 311 311 311 311 311 311 311 311 311 311 311 311 310 310 310 311 312 313 315 316 318 318 319 321 322 323 325 327 327 329 332 333 330 329 330 329 330 330 330 330 330 331 330 329 328 327 323 320 321 323 324 325 326 326 326 326 323 319 319 320 321
310 310 310 310 309 308 308 307 307 307 307 307 308 309 309 309 309 309 308 308 309 309 310 310 310 310 310 310 310 309 309 309 309 308 308 307 307 307 307 308 309 310 311 312 314 315 317 318 319 321 322 325 326 327 330 333 332 330 329 329 329 330 330 330 330 330 330 330 329 328 325 321 320 322 323 324 325 326 326 326 325 321 318 319 320
310 309 309 308 308 307 307 306 305 305 305 305 306 307 308 308 309 308 308 308 308 309 309 309 309 309 309 309 308 308 307 307 307 306 306 305 305 305 305 306 306 307 308 309 310 312 314 315 316 318 320 322 325 327 327 330 332 331 330 329 329 329 329 330 330 329 330 330 329 328 326 323 320 320 322 323 324 325 326 326 326 325 319 316 319
309 308 308 307 306 306 305 305 304 304 304 304 304 305 306 307 308 308 308 308 308 308 308 308 308 308 307 307 307 306 306 305 305 304 304 303 303 303 304 304 305 305 306 307 308 309 311 312 314 315 318 320 322 326 326 327 330 332 330 329 329 329 329 329 329 329 329 329 329 328 327 325 321 319 321 322 323 323 325 326 326 326 322 316 316
308 308 307 306 305 305 304 304 303 303 303 302 303 304 305 306 307 307 307 307 307 307 307 307 307 306 306 306 306 305 304 304 303 303 302 302 302 302 302 303 303 304 305 305 306 307 308 310 312 313 315 317 320 323 325 327 330 332 331 330 329 328 329 329 329 329 329 329 328 328 327 326 323 320 319 321 322 323 323 325 326 326 325 319 314
307 307 306 305 305 304 303 303 303 302 301 301 301 302 303 305 307 306 306 306 306 306 305 305 305 305 305 304 304 304 303 303 302 302 301 301 301 301 301 302 302 303 303 304 304 306 307 308 309 311 314 316 318 321 324 326 328 330 332 331 329 328 328 329 329 329 329 329 329 328 327 326 325 321 319 319 321 322 322 324 325 325 326 323 317
306 306 305 305 304 304 303 302 302 301 300 299 299 300 302 304 306 306 306 305 305 305 305 304 304 304 303 303 303 303 302 302 301 301 301 300 300 300 300 301 301 301 302 303 304 305 306 307 308 310 312 314 316 319 322 325 327 329 331 331 330 329 329 329 329 329 329 329 329 329 327 327 326 324 321 318 319 321 322 323 325 325 326 325 321
306 305 305 305 304 303 303 302 301 300 299 299 298 299 300 302 304 305 305 305 304 304 304 303 303 303 303 302 302 302 302 301 301 300 300 299 299 299 299 300 300 301 302 303 304 305 306 307 308 309 310 312 314 317 319 323 326 328 330 331 330 329 330 329 328 329 329 329 329 328 328 327 327 325 322 319 318 319 321 322 323 325 325 325 324
305 305 305 304 304 303 303 302 301 300 298 298 298 298 299 300 303 305 304 304 304 303 303 303 303 302 302 302 302 301 301 300 300 299 299 298 297 298 299 299 300 301 302 303 304 305 306 307 308 309 309 311 313 314 317 321 324 326 328 330 330 329 330 330 329 329 329 329 329 328 327 327 326 324 321 320 319 319 320 321 323 324 325 325 325
305 305 305 304 304 303 302 302 301 300 297 297 298 299 299 300 302 304 304 303 303 302 302 302 302 302 301 301 301 301 300 300 299 299 298 297 297 297 298 299 300 301 302 303 304 305 306 307 307 307 308 309 310 312 314 316 320 323 326 328 329 330 330 330 329 329 329 329 329 328 327 327 325 323 321 320 320 319 319 320 322 323 324 325 325
305 305 305 305 304 303 302 301 301 299 297 297 298 299 300 300 301 303 303 303 302 302 302 302 301 301 301 300 300 300 300 300 299 298 297 297 297 298 299 300 301 301 302 302 303 304 305 305 304 305 306 307 308 310 311 312 315 319 323 324 327 329 330 329 329 328 328 328 329 328 327 326 325 322 321 320 320 319 319 319 320 321 322 324 325
305 305 305 305 304 304 302 301 300 299 297 297 298 299 300 300 301 302 303 302 302 301 301 301 301 300 300 299 300 300 299 299 298 297 296 296 296 298 300 301 301 301 301 301 302 302 302 303 303 304 304 306 307 308 309 310 312 315 317 318 322 326 329 329 328 328 328 327 328 329 328 326 324 323 322 321 321 320 319 319 319 319 320 321 324
304 304 305 305 304 304 303 301 300 298 296 296 298 299 300 300 301 302 302 302 301 301 301 301 300 300 299 299 299 299 299 299 297 295 295 295 296 298 300 301 301 301 301 301 300 300 300 301 302 302 303 304 305 306 307 307 308 310 312 315 319 324 328 330 328 328 328 327 327 329 328 326 324 323 323 322 322 321 320 320 319 319 319 320 322
304 304 304 304 304 304 303 301 300 297 295 296 298 299 300 301 301 302 302 302 301 301 301 300 300 300 299 299 299 299 298 298 296 294 294 295 297 299 300 300 301 301 301 301 300 299 299 299 300 301 301 302 303 304 305 305 306 306 309 313 316 320 324 327 328 327 327 327 327 328 328 327 324 323 323 323 323 322 321 320 320 320 319 319 321
303 303 303 304 304 304 303 302 300 298 295 295 297 299 300 301 301 302 302 301 301 301 301 300 300 300 299 299 298 298 298 297 295 294 294 295 297 299 299 299 300 300 300 300 299 298 298 298 298 300 300 301 301 302 304 305 306 306 307 309 312 315 318 323 327 327 327 327 327 327 327 327 325 323 323 323 323 322 322 321 320 320 320 319 320
303 303 303 303 303 303 303 302 300 298 295 295 296 298 300 301 302 302 302 301 301 301 301 300 300 300 299 298 298 298 297 296 295 295 295 296 298 298 298 298 299 299 299 298 298 297 297 297 298 299 300 300 301 303 304 305 306 306 306 309 312 315 318 324 327 327 327 327 326 326 326 326 325 323 323 323 323 323 322 321 321 321 320 320 320
303 303 302 302 301 302 302 302 301 299 296 294 295 297 299 300 301 302 302 302 301 301 301 301 300 300 299 298 297 297 297 296 295 295 295 297 298 298 298 298 298 297 298 297 297 297 297 297 298 298 299 300 301 303 304 305 306 306 307 310 314 316 320 326 328 326 326 326 326 325 326 325 324 323 323 323 323 323 322 322 321 321 321 320 320
303 303 303 302 301 300 300 300 301 300 296 294 294 296 297 299 301 302 302 302 301 301 301 301 300 300 300 298 297 296 296 296 295 295 295 296 298 298 298 298 298 297 297 297 297 297 297 297 298 298 299 299 300 301 303 304 305 306 306 309 311 313 319 325 326 326 326 326 325 325 325 324 324 324 322 321 321 321 321 322 321 321 321 320 320
302 302 303 302 302 301 300 299 299 300 298 295 294 295 296 297 300 301 301 301 302 301 300 300 300 300 299 299 297 295 296 296 296 296 295 296 297 298 297 297 297 297 297 297 297 296 296 296 297 297 298 299 299 300 300 302 304 305 306 306 307 309 314 318 320 324 327 325 323 323 324 323 323 323 322 320 319 318 317 318 319 319 320 320 319
Wind_Speed
3 3 3 3 2 2 3 2 3 3 3 4 5 4 5 7 7 8 9 9 9 10 11 12 12 11 11 12 11 12 11 11 11 11 10 9 8 9 11 13 13 12 11 10 9 10 11 9 10 9 9 9 9 10 9 8 9 7 6 7 7 7 6 4 3 2 3 4 5 5 6 6 7 7 7 9 8 7 6 6 7 8 9 10 11
3 3 2 3 2 2 3 3 3 5 5 6 6 5 6 7 7 8 9 9 9 9 10 11 13 13 12 12 13 12 12 12 12 11 11 11 10 8 9 12 14 16 14 12 11 11 12 12 11 10 10 10 9 10 11 10 11 10 8 7 7 8 7 5 4 3 4 5 5 5 5 5 8 8 8 10 9 7 8 7 8 9 10 10 11
2 2 2 3 3 3 4 3 5 6 6 6 5 5 7 8 8 8 9 9 10 10 10 11 12 14 13 14 13 13 14 13 13 12 11 10 10 10 10 12 14 17 17 15 14 13 14 14 13 12 11 12 11 11 11 10 11 11 9 8 8 9 8 8 6 5 6 6 6 5 6 6 7 8 9 11 9 8 8 8 8 9 10 10 11
2 1 2 2 2 3 3 3 4 4 5 5 5 7 8 8 9 8 9 10 11 11 11 12 13 14 14 15 14 14 14 14 13 12 12 11 12 12 11 13 15 17 19 19 17 16 15 15 15 14 13 13 12 12 12 11 12 11 10 9 9 9 9 10 9 7 7 7 7 7 6 7 7 7 9 11 9 9 10 8 9 9 9 9 10
3 2 2 2 2 2 3 3 3 3 4 4 5 7 8 8 8 9 9 10 11 12 12 12 14 14 14 15 15 15 14 14 14 13 14 15 15 15 14 14 14 17 20 21 19 18 17 17 16 15 14 14 14 14 13 12 12 12 11 10 10 9 9 11 10 8 8 8 9 8 7 7 8 7 9 11 10 10 11 9 10 10 9 9 9
4 4 2 2 2 2 2 2 2 3 3 4 5 6 7 8 8 8 9 10 11 12 12 13 14 14 15 16 15 16 15 15 15 14 16 16 16 18 18 17 16 17 20 22 21 19 19 19 17 17 16 16 15 14 14 13 13 13 12 11 11 10 10 12 12 10 10 10 9 9 8 8 9 9 10 11 10 11 12 11 10 10 10 10 9
4 4 3 3 2 2 2 2 2 3 3 4 5 6 6 7 8 9 10 10 11 12 12 12 13 14 15 16 16 17 17 16 16 16 16 16 17 18 18 20 21 20 21 22 22 20 19 19 19 19 18 17 16 15 15 14 14 15 15 12 12 11 10 12 14 12 11 11 10 10 10 9 9 10 11 11 10 11 13 13 11 11 11 11 11
4 3 3 3 2 2 2 2 2 3 3 5 6 6 6 8 8 9 11 11 12 12 12 12 13 14 14 15 15 16 17 17 18 18 18 18 19 18 17 20 22 21 21 22 23 23 21 19 19 20 20 18 17 16 16 16 15 16 16 13 13 12 11 13 14 13 13 13 12 11 11 11 10 10 10 11 10 10 14 15 12 12 12 11 11
3 3 2 2 2 1 1 1 2 3 4 5 6 6 7 8 9 9 11 12 13 13 13 13 13 13 13 14 14 15 16 17 20 21 20 21 20 19 18 19 19 19 20 22 23 23 21 19 19 19 21 20 19 18 17 17 16 16 15 14 14 13 12 14 15 14 14 14 13 13 13 12 11 11 10 10 9 10 14 15 13 13 13 12 12
2 1 1 1 2 1 1 1 2 3 5 6 6 7 7 8 10 10 11 11 13 13 13 13 13 13 14 14 15 17 16 16 20 22 21 21 20 20 20 19 18 18 19 22 22 20 20 19 18 18 20 21 21 21 19 18 18 18 17 16 16 15 14 15 15 15 15 16 14 14 14 13 12 11 11 11 10 11 14 14 13 14 13 12 12
1 0 1 2 2 2 2 3 3 4 5 7 7 7 8 9 10 11 11 11 12 12 12 12 12 13 14 15 16 17 16 17 19 20 19 20 20 20 20 18 18 17 17 19 19 18 18 18 19 20 20 22 23 23 22 20 19 19 18 19 18 16 16 16 16 16 17 17 16 15 15 15 13 12 12 12 11 12 15 15 14 14 13 12 12
2 2 2 3 3 2 3 4 5 5 6 8 8 8 9 10 10 11 11 11 11 11 11 11 12 13 14 15 16 16 18 20 20 19 19 20 19 18 18 18 19 19 18 18 18 18 18 18 20 21 19 20 23 24 24 24 22 21 20 20 20 18 18 18 17 17 18 19 17 17 17 16 15 14 13 13 13 13 15 16 15 14 13 13 13
4 3 3 4 4 4 4 5 6 6 7 8 8 9 9 10 10 10 10 11 11 10 10 11 12 12 12 13 15 17 18 18 18 16 17 18 17 18 18 18 19 19 18 18 18 19 18 17 18 20 19 19 21 24 25 25 25 25 22 21 21 20 19 19 19 19 19 20 19 18 18 18 16 15 15 15 14 14 15 16 15 15 14 14 15
6 6 5 5 5 5 5 6 7 7 8 8 8 9 9 9 9 9 9 9 10 9 9 10 10 11 11 11 12 13 12 12 13 14 15 17 16 17 18 19 19 17 16 16 16 20 20 18 17 19 20 21 21 23 25 26 27 27 25 23 23 22 21 21 20 20 21 21 21 20 19 19 18 17 17 16 15 15 15 16 15 15 16 15 17
7 7 7 8 8 8 8 8 8 9 9 9 9 9 9 9 9 9 10 9 9 8 8 8 10 12 11 9 8 8 6 3 8 12 15 16 15 17 19 18 19 17 17 19 18 19 21 20 20 21 21 21 22 22 25 26 26 26 26 25 26 24 22 22 22 22 22 22 21 21 21 20 19 18 18 18 17 16 16 16 16 16 17 17 19
7 7 7 8 8 8 9 9 9 9 10 10 10 10 10 10 9 9 10 10 10 9 8 8 9 9 8 7 7 7 5 2 7 11 10 12 14 18 19 17 17 17 17 20 20 20 20 20 22 23 22 23 24 22 23 23 23 24 25 25 28 26 24 24 23 23 24 24 23 23 23 22 20 20 20 20 20 18 18 18 17 18 19 19 20
7 7 6 7 8 8 8 8 9 9 9 10 11 11 11 11 11 11 10 11 12 12 10 8 7 7 8 8 6 5 5 7 11 9 5 9 12 15 18 16 16 15 16 20 23 24 24 22 21 23 24 25 25 22 22 22 21 23 24 26 28 28 26 25 24 24 26 26 25 24 24 23 22 21 22 22 22 20 19 19 19 19 20 20 21
7 7 7 7 8 8 8 8 9 9 9 9 10 11 12 12 12 12 12 11 12 13 12 10 8 9 9 9 9 8 8 9 10 7 7 10 10 11 14 15 16 16 17 21 23 24 25 23 22 23 23 23 23 21 19 20 21 22 24 25 28 29 28 27 26 26 27 28 26 25 26 25 24 23 22 23 23 22 21 21 20 21 21 21 21
8 8 8 8 8 9 9 9 9 9 9 9 10 11 12 13 13 13 14 13 13 13 14 13 12 11 9 10 13 14 13 11 9 7 8 9 8 9 11 12 15 16 17 19 20 21 22 22 23 24 24 24 25 23 21 21 22 22 23 26 27 28 29 29 28 28 28 29 28 27 27 27 27 25 23 24 25 23 22 22 21 21 21 21 22
9 9 9 9 8 9 9 9 9 9 10 10 10 11 12 13 14 14 14 14 14 15 15 15 14 13 12 12 14 14 14 14 12 9 8 8 9 10 10 10 13 15 16 17 17 16 17 18 21 23 24 27 27 23 22 25 24 23 23 26 27 27 27 28 30 32 30 30 30 29 29 29 28 26 24 25 26 25 24 23 22 22 22 22 23
9 9 9 9 9 9 9 9 9 9 10 10 10 11 12 13 14 14 14 14 15 15 16 16 16 16 15 15 15 15 14 14 14 12 10 10 9 8 10 10 11 15 17 18 18 16 15 17 20 21 24 28 27 25 24 25 26 26 26 26 27 27 27 26 29 34 34 31 31 31 31 31 28 27 26 25 27 27 26 25 24 23 23 23 23
8 8 9 9 8 9 9 9 9 9 10 11 11 12 12 12 13 13 13 14 14 15 17 17 17 18 17 17 16 16 14 12 13 13 11 10 9 9 12 12 11 13 14 16 18 18 17 17 18 20 23 25 26 26 28 27 26 27 27 27 28 29 29 27 28 32 36 34 32 30 30 31 29 27 27 26 27 29 27 26 25 23 23 25 25
7 8 9 9 8 9 9 9 9 9 10 11 11 12 12 12 12 12 12 13 14 15 16 16 16 18 18 18 18 17 16 14 15 16 13 11 10 10 12 15 15 15 14 14 15 16 17 17 17 18 21 22 22 23 27 29 29 28 27 28 29 30 31 31 29 31 35 36 34 31 30 31 32 29 28 28 28 29 28 26 25 24 25 25 25
7 8 9 9 9 9 9 9 10 10 10 11 11 11 12 12 11 12 12 13 13 14 14 15 16 17 17 18 18 19 18 18 18 19 17 16 14 10 12 17 15 15 17 16 15 16 17 17 17 17 18 18 20 21 23 27 30 31 30 29 30 31 32 33 33 32 34 36 36 34 32 32 33 32 30 29 30 29 29 28 26 26 26 27 26
7 8 9 9 9 9 9 9 10 10 10 11 11 11 12 11 11 11 12 12 13 14 14 15 15 15 16 17 17 18 19 19 20 20 19 20 18 12 14 17 14 14 18 18 16 17 16 16 17 18 17 17 17 19 21 24 28 31 33 32 31 33 34 34 35 35 34 36 38 38 35 32 32 33 32 30 31 31 30 29 29 28 28 28 27
7 8 8 8 8 9 9 9 10 10 10 11 11 11 11 11 10 11 12 12 13 14 14 14 14 15 16 16 17 17 17 18 19 20 19 20 19 16 15 16 15 16 17 19 18 16 15 15 15 17 17 16 15 17 20 24 27 30 32 34 33 34 36 36 37 38 36 37 40 40 39 35 32 34 34 32 32 33 31 31 31 30 29 29 28
7 7 8 8 8 8 9 9 10 10 10 11 11 11 11 10 10 11 12 12 13 13 13 13 14 15 15 16 16 16 16 17 18 18 19 19 20 20 17 13 13 13 13 16 18 16 17 17 15 16 16 15 15 16 19 21 25 28 31 34 35 36 37 38 39 40 38 37 41 42 42 39 35 34 36 35 34 34 34 33 33 32 32 31 30
7 7 8 8 8 8 8 9 10 10 10 11 11 11 11 10 10 11 12 13 13 13 13 13 14 15 15 16 16 16 16 17 18 18 19 19 19 20 19 16 13 11 10 12 13 14 19 20 17 16 16 16 16 16 19 22 24 27 29 33 37 38 38 39 41 42 40 38 41 44 44 43 39 36 37 38 37 36 36 35 34 34 34 34 33
7 7 7 8 8 8 9 9 10 11 11 11 11 11 11 10 11 11 12 13 14 13 13 14 15 15 15 16 16 16 16 17 17 17 18 19 19 19 19 18 16 12 10 10 9 12 18 21 20 18 15 15 16 16 19 22 25 27 29 32 36 37 38 40 42 44 43 42 43 45 46 46 43 40 38 40 40 38 37 37 36 36 37 37 37
7 7 7 8 8 9 9 10 10 11 11 11 11 11 11 11 11 11 12 14 14 13 14 15 15 15 16 17 16 16 16 17 18 18 17 18 18 19 18 19 18 14 11 10 10 14 19 20 21 21 18 15 15 17 20 21 23 27 29 32 34 36 38 41 43 45 45 44 44 46 48 47 46 44 40 40 41 40 39 39 38 38 39 39 38
8 8 8 8 9 9 10 10 10 11 11 11 11 11 11 11 12 12 13 15 15 14 15 15 15 16 16 17 17 17 18 18 18 18 18 18 19 19 19 19 19 18 17 13 10 15 21 21 22 24 22 21 20 20 22 22 22 25 28 31 34 35 37 40 41 43 45 45 44 46 49 49 48 47 43 40 42 43 41 40 39 38 39 39 38
8 8 9 9 9 10 10 11 11 12 12 12 12 12 12 12 12 12 14 15 15 15 15 15 16 16 17 17 18 18 19 19 19 19 19 20 20 20 20 20 20 20 21 18 12 16 23 22 22 26 25 25 27 24 23 24 23 24 27 31 34 36 36 37 39 41 43 46 46 47 50 51 49 49 46 42 42 44 43 42 41 40 40 40 39
9 9 9 10 10 11 11 12 13 13 13 13 13 12 12 12 12 12 14 15 15 15 15 16 16 16 17 18 18 19 19 19 19 20 20 20 21 20 20 20 20 20 21 21 17 16 22 23 22 25 25 26 30 29 24 24 26 25 26 29 32 35 36 36 38 40 42 45 47 47 50 52 51 50 49 45 43 44 45 45 44 43 42 41 41
10 10 10 10 11 12 12 13 14 14 14 14 13 12 12 13 13 13 13 14 15 15 15 16 16 17 17 17 18 19 19 19 20 20 20 21 22 22 21 20 21 21 21 22 21 18 21 25 24 25 25 24 26 28 25 24 27 26 27 29 31 34 36 36 38 39 41 43 47 48 49 51 52 51 50 48 46 44 45 46 46 45 44 43 43
10 11 11 11 12 12 13 14 14 15 15 15 14 13 13 13 13 13 13 14 15 15 16 16 17 17 17 18 18 19 20 20 21 20 21 22 23 22 22 21 21 22 22 21 22 21 22 26 26 25 25 24 23 25 26 26 27 28 28 29 30 32 35 36 38 39 40 42 46 47 48 49 51 52 52 51 49 47 45 47 48 47 46 45 45
11 11 11 12 12 13 13 14 15 16 16 16 15 15 13 13 13 13 14 14 15 15 16 17 17 18 18 18 18 19 20 21 21 22 22 24 24 23 23 23 22 23 23 22 22 23 24 25 26 25 25 26 26 26 26 27 27 27 29 30 30 31 34 36 38 39 39 42 44 46 48 48 49 51 53 52 51 50 48 47 49 49 48 47 47
11 11 11 12 13 14 14 15 16 16 17 17 17 15 14 13 13 13 14 15 15 16 16 17 17 18 18 18 18 19 20 21 22 23 24 25 26 25 25 26 24 24 24 23 23 23 24 25 27 27 26 26 28 27 25 25 25 25 27 29 30 30 32 34 36 39 39 41 43 45 47 48 48 50 53 53 53 52 51 49 49 51 50 49 49
12 12 11 12 13 14 15 16 16 17 18 18 17 16 15 14 13 13 14 15 15 15 16 17 17 18 18 18 18 19 20 21 22 23 24 25 26 27 27 26 25 25 25 24 24 23 24 25 26 27 27 26 26 27 26 25 25 26 26 26 27 28 30 32 34 36 38 40 43 44 45 47 48 50 52 54 54 54 53 51 50 51 51 51 50
12 11 12 12 12 13 14 16 17 18 18 19 18 17 15 13 13 13 14 15 15 16 17 17 17 18 19 18 18 20 21 22 23 24 25 26 27 27 27 26 25 25 25 25 24 23 23 24 24 25 26 26 26 27 28 26 25 27 27 23 21 23 27 31 33 34 35 38 41 42 43 45 47 49 52 54 55 55 55 54 52 51 52 52 52
11 11 11 12 12 13 14 15 16 18 18 18 18 18 16 13 12 14 15 15 16 17 17 17 18 19 20 19 19 20 21 23 25 25 25 27 28 27 26 25 25 25 25 25 24 23 22 22 23 24 25 25 25 26 28 26 22 23 25 22 18 20 24 28 31 32 32 34 36 38 41 43 46 49 52 54 56 56 56 56 54 53 52 53 53
11 11 11 12 12 13 14 14 16 18 20 18 17 17 18 16 13 13 14 15 16 17 17 18 18 20 21 20 20 21 22 24 26 27 27 29 29 27 27 27 27 27 26 25 24 24 23 22 23 24 24 24 24 24 26 26 23 23 25 23 21 20 21 25 27 29 30 31 31 34 39 43 46 48 51 53 56 56 56 56 56 55 53 53 54
11 11 11 12 12 13 14 15 15 18 22 20 15 15 16 16 14 13 13 15 16 17 18 18 19 20 21 21 21 22 23 25 27 29 31 33 31 28 27 28 29 29 27 25 24 23 22 21 22 23 23 23 25 25 26 28 29 30 29 26 23 20 17 17 20 24 29 31 29 30 35 41 44 45 47 51 54 55 56 57 58 57 56 55 55
11 11 11 11 11 13 14 16 16 19 22 20 16 15 16 16 15 13 13 14 16 17 18 18 19 21 22 23 23 23 23 25 27 29 33 35 33 29 28 28 26 25 25 25 26 24 21 21 22 23 23 24 26 27 26 28 30 30 30 28 25 21 16 13 12 16 24 30 30 29 30 36 41 42 43 48 51 53 56 58 59 59 58 58 57
11 11 11 10 11 12 14 16 17 20 24 20 15 15 16 16 16 14 13 14 16 17 18 18 19 21 23 25 24 23 23 25 28 29 32 35 33 29 29 28 26 23 22 23 25 25 24 24 23 23 24 26 28 28 27 27 28 31 34 33 30 25 19 14 10 13 19 25 29 30 27 28 35 39 40 44 48 51 54 57 59 61 61 61 59
11 11 11 10 11 11 13 16 18 22 25 21 15 14 15 15 16 14 13 14 16 17 18 18 19 21 24 26 24 23 25 27 29 31 32 32 31 28 28 28 26 25 23 22 23 25 25 25 25 25 26 27 28 28 28 28 29 32 34 32 30 28 22 18 18 19 20 21 24 27 23 23 30 36 38 41 45 48 52 55 59 62 62 62 62
11 11 11 11 11 12 13 15 17 22 26 23 16 13 13 13 15 14 13 13 14 16 17 17 18 20 23 25 24 24 26 28 33 35 32 28 27 27 28 28 27 26 25 23 25 27 26 25 27 29 29 28 30 31 29 29 29 29 30 32 32 31 26 23 25 23 20 21 23 21 17 19 27 32 35 38 40 43 49 53 56 60 61 62 62
10 10 10 11 11 12 13 14 16 20 25 25 19 15 13 13 13 13 12 12 13 14 15 17 17 18 21 23 23 24 26 29 36 39 33 26 25 26 27 27 27 26 25 24 27 30 30 29 30 31 30 30 31 31 28 26 27 28 29 32 35 36 36 31 24 21 18 20 23 19 13 15 23 28 31 33 35 38 44 48 52 56 58 60 62
10 10 11 11 12 12 12 13 15 18 23 25 22 17 13 12 13 12 11 12 13 13 14 17 17 15 18 22 23 23 25 30 36 41 35 26 25 27 27 27 27 26 25 26 29 31 33 33 31 30 31 32 30 28 25 23 24 27 28 28 29 32 33 25 15 14 17 19 22 22 16 13 19 25 25 26 28 32 37 42 46 51 56 59 62
10 10 11 12 13 13 12 12 13 16 21 24 24 21 16 12 13 12 10 11 14 14 14 16 16 15 17 22 24 23 24 29 35 39 36 28 26 28 28 27 28 28 27 29 30 31 33 35 34 31 32 33 31 27 26 24 22 24 23 20 20 22 21 14 8 9 15 18 21 23 19 13 16 21 19 19 23 27 30 34 38 44 51 57 60
10 10 11 11 13 14 14 13 12 13 18 23 24 22 18 14 13 13 11 11 14 15 14 15 16 15 16 20 25 26 26 28 33 38 38 32 27 28 28 28 29 29 29 31 33 35 36 38 38 36 35 36 35 32 30 27 25 24 21 18 17 17 13 9 7 9 12 13 18 22 17 12 15 18 15 12 14 18 21 25 27 31 40 51 57
10 9 10 10 11 12 13 14 14 12 15 20 23 23 20 17 15 13 12 12 13 15 15 15 15 16 15 17 24 28 28 27 30 35 38 36 30 27 28 27 27 30 30 30 34 39 39 40 40 38 36 36 36 35 34 32 29 26 24 22 21 18 12 7 6 4 5 5 10 17 16 11 12 17 15 9 5 8 12 16 19 20 25 38 49
Wind_Direction
173 187 187 191 195 189 212 221 231 249 259 263 263 259 262 262 258 257 256 255 257 254 251 253 251 245 248 253 249 245 246 250 253 255 257 257 255 259 264 271 276 273 265 255 235 217 227 223 213 223 228 242 247 227 225 237 238 236 238 236 240 248 239 223 224 214 190 192 183 172 178 172 171 179 174 171 163 156 159 152 147 143 138 134 130
187 203 198 207 209 197 220 223 230 249 252 251 254 256 266 269 264 262 261 256 257 256 252 254 257 251 242 245 252 252 249 249 252 254 257 258 264 276 269 267 274 276 268 256 245 223 220 220 216 225 228 233 241 229 222 234 238 231 235 235 230 236 233 229 227 210 193 192 187 172 175 168 168 182 182 173 165 164 170 164 160 153 146 142 137
188 200 196 203 201 204 224 225 235 253 258 258 264 265 264 268 269 271 274 271 268 264 259 256 259 260 252 245 245 250 249 247 247 249 253 253 258 269 264 263 274 277 272 259 246 234 223 218 220 225 226 230 234 228 222 230 232 225 230 232 231 237 230 232 236 215 202 195 189 178 182 183 178 190 188 173 163 166 176 176 172 161 153 151 143
172 183 190 193 194 199 212 222 237 257 270 271 269 265 264 267 270 274 275 275 274 270 267 265 264 265 265 261 253 250 250 246 244 243 244 244 247 251 252 262 273 271 267 261 247 237 229 219 219 223 222 224 228 226 223 226 227 222 227 228 230 236 224 227 236 221 207 198 193 190 187 189 188 188 181 171 162 165 173 180 178 165 156 155 148
152 155 173 185 185 194 201 212 236 253 262 266 266 266 270 272 272 272 270 269 269 267 267 266 266 267 269 270 266 261 259 252 248 241 241 245 247 248 246 252 264 263 258 257 250 241 235 224 216 219 223 223 224 225 221 225 229 222 222 223 224 231 223 222 229 220 211 204 198 194 187 189 190 182 172 171 169 169 171 177 179 170 163 161 156
158 165 177 197 196 205 212 213 238 255 259 262 268 271 275 279 280 279 276 273 271 270 270 268 269 270 268 269 270 268 266 261 254 249 248 248 248 252 251 247 251 255 253 251 249 243 238 231 219 214 220 224 223 223 221 225 228 221 222 222 218 224 223 219 222 219 215 209 198 191 185 186 187 183 179 177 178 177 176 180 180 176 174 168 162
171 179 186 209 214 212 216 225 253 264 264 262 269 276 276 279 283 284 284 280 276 276 275 273 273 272 272 271 270 270 270 264 256 254 255 254 251 252 251 249 250 252 251 248 246 244 237 234 227 214 213 221 223 222 222 225 229 228 231 228 216 221 223 216 217 216 217 212 197 188 183 183 184 185 188 189 191 187 184 186 182 181 182 174 168
180 193 203 223 232 225 215 227 259 270 272 275 280 284 282 283 284 283 285 285 282 281 279 278 278 276 275 274 274 275 273 268 262 260 261 260 260 256 249 250 253 251 247 244 241 242 237 230 230 221 213 215 218 221 221 222 227 229 231 226 215 222 224 216 213 211 218 216 198 190 185 183 185 184 188 192 196 192 184 187 186 182 184 178 174
179 195 216 242 255 261 248 236 270 287 285 290 292 292 294 293 293 289 289 290 289 288 284 282 283 283 281 277 275 270 268 270 269 268 267 265 264 260 254 250 250 246 243 242 238 238 238 230 228 226 220 216 214 217 218 218 223 223 222 221 216 220 223 219 214 207 217 220 201 192 189 187 188 184 187 188 188 187 178 183 186 180 181 180 178
169 191 233 275 306 325 331 296 293 296 291 296 298 298 301 300 300 300 298 295 293 295 294 293 291 288 285 280 274 269 269 271 271 272 271 267 264 261 260 253 248 245 241 243 240 236 238 232 224 224 225 222 218 217 216 215 221 223 221 221 217 218 220 220 215 204 213 221 206 196 193 189 189 185 187 184 182 181 174 178 183 179 179 179 179
141 62 322 340 342 336 326 311 304 298 295 301 305 306 307 306 304 303 302 297 295 298 299 299 297 291 288 284 279 274 270 268 270 272 271 269 269 267 266 259 251 249 245 244 241 235 236 233 224 220 224 226 224 222 218 213 217 223 223 222 218 218 218 218 215 206 212 220 210 201 197 190 189 187 187 182 177 179 176 178 181 180 179 177 181
67 35 4 357 346 330 324 319 310 303 304 309 315 316 314 313 309 307 305 302 300 299 297 300 298 292 288 282 278 273 265 264 265 268 271 274 276 272 268 263 257 254 251 247 244 238 234 233 225 215 216 225 228 226 222 216 216 219 222 222 219 218 218 216 214 209 212 219 212 204 200 192 189 188 187 183 177 178 181 183 184 185 183 179 181
49 38 19 360 340 331 328 321 316 314 315 315 319 321 319 317 314 312 308 304 306 304 304 305 299 294 292 287 284 277 267 261 262 266 272 275 275 272 269 266 263 258 255 251 248 246 238 233 224 215 218 224 228 229 226 223 222 222 222 221 221 222 219 215 213 212 213 217 213 205 202 195 191 191 187 183 180 178 182 186 186 188 188 183 181
40 29 18 8 350 340 335 327 325 325 323 320 321 322 321 322 321 319 313 305 306 308 311 308 301 304 305 299 295 288 274 259 261 266 270 273 271 269 269 269 267 263 260 255 250 251 247 238 231 231 231 224 223 228 226 225 226 227 226 221 220 222 220 215 214 214 213 214 213 207 203 197 193 195 190 185 184 181 181 183 183 186 187 184 180
28 20 11 7 359 352 346 340 339 337 332 327 325 324 325 328 328 324 318 312 307 307 310 306 305 312 308 300 302 304 300 264 270 272 266 268 264 259 263 267 268 266 264 260 256 258 254 245 239 241 239 227 224 227 223 222 224 226 228 222 218 219 218 217 216 216 213 211 211 208 203 199 197 197 192 188 187 185 185 182 180 182 181 181 179
26 21 12 6 2 357 350 347 347 344 340 335 332 331 330 330 332 328 323 319 316 314 311 304 304 311 309 304 303 301 307 332 311 296 270 262 258 254 257 261 266 267 263 259 256 255 255 254 246 242 242 234 228 226 220 220 221 223 227 223 217 216 217 216 215 217 214 208 208 209 204 200 199 197 193 193 189 187 190 186 181 180 178 179 178
30 26 20 16 14 6 358 354 351 350 347 341 336 335 334 335 336 333 329 325 320 318 314 308 301 295 294 297 301 303 315 327 321 312 286 270 261 255 258 259 263 265 261 260 258 253 254 259 253 242 241 236 229 229 227 222 216 218 225 226 220 216 216 217 215 217 216 209 206 209 207 203 201 197 195 197 192 187 192 189 184 182 180 181 181
37 32 26 22 21 15 8 2 358 357 353 347 343 340 338 339 340 336 332 329 323 317 314 314 306 289 280 276 284 291 297 311 315 310 301 286 267 261 260 255 256 256 259 264 263 257 253 256 252 243 242 237 231 233 230 221 216 218 223 225 223 218 217 219 216 216 218 213 207 207 208 207 204 199 197 199 193 188 192 191 188 186 183 185 184
44 38 33 26 22 19 14 8 3 360 353 349 349 345 341 339 340 337 332 330 327 320 316 318 312 301 293 282 282 282 279 289 298 302 307 298 284 277 264 253 254 254 257 264 265 262 259 258 253 246 244 243 238 236 234 227 225 227 225 225 226 221 220 222 218 215 218 218 211 208 208 208 206 201 198 200 195 190 193 193 190 190 188 188 187
47 41 37 31 27 22 18 14 7 2 357 353 349 346 343 338 337 339 335 331 329 323 319 320 315 310 310 301 293 289 283 283 283 279 288 297 298 294 284 273 265 262 263 262 260 260 258 256 255 248 245 246 241 236 236 232 227 228 226 226 229 225 222 225 220 213 216 221 218 212 208 207 205 202 200 201 198 193 193 194 193 192 193 192 190
47 40 34 28 27 23 18 15 9 3 358 353 347 345 343 338 337 338 336 332 328 325 325 326 322 319 318 313 308 304 296 292 288 282 282 290 294 298 301 289 269 270 270 257 251 253 251 250 248 243 243 247 244 236 235 234 230 231 230 228 231 230 226 228 224 215 213 219 223 219 212 206 202 201 201 202 201 196 192 193 194 194 195 194 192
42 36 28 22 22 19 15 11 8 3 358 353 348 346 344 339 337 335 335 334 330 329 330 328 325 324 324 320 316 313 309 304 301 298 293 286 285 293 301 298 289 285 274 258 253 254 255 253 244 240 244 249 247 241 238 239 237 233 231 229 229 233 233 232 229 221 215 217 223 225 218 208 203 203 202 201 202 199 194 193 193 193 196 196 194
39 33 25 20 21 19 16 14 12 7 1 357 351 348 345 341 338 335 337 338 333 330 329 327 326 324 323 322 320 320 318 314 313 313 307 297 296 299 301 300 301 299 290 277 269 261 259 257 248 243 245 245 244 242 240 241 239 231 229 231 228 231 236 234 233 228 221 218 219 224 223 212 205 204 202 201 201 200 196 195 194 193 196 197 195
40 33 24 22 23 22 20 16 14 9 3 360 354 350 348 345 341 339 340 340 336 333 330 329 329 324 321 321 319 319 318 317 319 318 314 310 306 300 302 304 302 300 298 293 284 273 263 259 255 251 248 243 239 239 241 243 239 230 227 230 227 226 232 234 235 234 228 221 218 219 223 218 208 203 203 201 200 202 199 197 196 195 197 197 196
43 36 27 25 27 24 23 19 15 11 7 3 359 356 355 351 348 348 346 345 344 341 335 332 331 327 323 321 320 319 317 318 320 319 318 317 313 306 305 307 304 300 299 295 289 283 272 263 258 254 252 250 243 238 241 245 241 234 230 230 229 227 229 232 235 236 232 224 219 218 221 221 213 205 204 203 201 203 201 198 198 197 199 198 195
48 41 31 29 33 28 25 23 18 14 10 7 4 2 1 358 355 356 353 349 348 346 340 338 338 335 331 326 323 322 319 318 318 317 318 319 318 319 316 311 309 305 300 298 295 289 282 274 265 259 257 256 249 239 239 245 245 240 234 232 233 233 231 231 233 235 234 227 220 218 219 222 220 211 205 204 204 203 200 199 199 198 200 200 195
53 45 38 37 36 31 29 24 19 16 13 10 8 5 4 2 1 359 356 352 350 348 345 344 343 341 338 334 330 326 324 324 324 322 322 321 318 319 318 315 312 308 303 301 297 290 288 287 279 270 263 256 248 238 236 243 246 244 240 236 236 238 234 230 231 232 234 230 222 219 218 219 222 216 206 205 206 204 201 200 200 199 200 201 197
58 48 45 42 37 31 28 23 19 17 14 12 10 8 7 7 6 2 358 355 352 351 349 347 346 344 342 340 336 333 332 333 332 329 327 324 320 317 315 312 311 312 310 305 300 295 295 296 292 281 268 254 246 241 240 245 248 248 245 240 238 239 237 232 232 230 231 232 226 220 218 218 220 218 209 206 207 206 202 201 202 201 199 200 200
61 53 47 42 36 31 27 23 21 18 16 15 12 10 9 10 8 4 1 358 355 354 353 351 349 347 345 343 339 336 336 336 333 331 329 327 324 321 317 314 315 315 311 306 303 302 302 300 298 294 282 258 244 248 254 253 254 252 246 242 240 240 239 236 232 229 229 232 229 223 219 217 217 218 213 207 207 207 204 202 203 203 201 200 200
62 55 49 42 36 31 28 25 21 18 17 15 14 13 13 12 10 7 4 0 358 358 356 354 351 349 346 345 342 340 340 338 334 333 331 330 328 326 323 319 317 314 312 312 306 305 308 306 303 301 294 275 254 256 266 264 260 256 249 244 242 240 239 237 234 231 229 231 230 226 221 217 216 216 216 210 207 208 206 204 205 204 203 203 202
61 55 48 42 37 32 29 26 22 20 18 15 15 15 16 14 11 9 6 3 1 359 357 355 352 349 348 346 345 346 345 342 339 338 337 335 334 332 328 324 320 316 312 308 301 303 307 308 308 307 303 294 279 265 268 271 265 258 251 245 243 241 240 239 238 235 232 232 231 228 223 219 216 215 217 214 209 209 207 206 207 206 206 206 205
61 56 50 44 40 36 33 30 25 21 19 18 16 16 18 17 14 10 6 5 3 0 357 356 353 351 349 348 348 349 349 345 342 342 341 340 340 336 332 327 323 319 315 310 302 301 304 303 303 304 304 303 296 280 269 272 270 260 254 249 245 243 242 241 239 237 235 233 231 229 226 221 217 215 215 214 211 210 208 207 208 208 207 209 208
64 59 53 48 43 40 38 33 29 24 22 19 16 16 17 15 15 13 8 6 5 1 358 356 355 354 351 350 350 350 350 348 345 344 343 343 342 337 334 330 325 322 320 315 308 302 304 305 303 300 300 301 300 293 279 270 271 266 258 254 249 245 243 241 239 238 237 235 231 229 227 223 219 216 214 214 213 212 210 208 209 210 209 210 211
67 62 56 52 47 45 41 35 31 27 23 20 16 15 14 12 14 14 9 7 5 2 0 358 356 356 353 352 351 351 351 349 348 347 345 344 342 337 334 332 325 321 320 315 309 305 304 306 305 302 300 296 293 293 286 272 270 269 261 256 253 249 245 242 241 239 238 237 233 230 227 224 221 218 215 214 214 214 212 210 210 211 211 211 212
71 65 60 56 51 46 42 37 33 27 24 21 17 14 13 11 12 11 10 8 5 3 2 359 358 357 355 354 354 353 352 350 349 349 346 344 341 336 332 330 323 319 317 314 309 305 303 303 303 302 301 297 290 286 286 280 274 269 263 258 254 251 248 243 241 239 238 237 233 229 226 224 222 220 217 215 214 214 213 212 211 212 213 212 212
74 69 65 60 54 48 43 38 33 28 23 19 16 15 14 11 10 10 10 8 7 7 4 1 1 359 358 356 356 355 353 351 349 347 345 343 340 336 332 328 323 319 316 313 308 304 302 300 300 299 298 297 293 286 284 282 273 265 264 261 255 251 249 245 242 240 239 238 234 230 228 225 222 221 220 217 216 215 214 214 213 213 213 213 213
76 72 67 61 56 51 45 39 33 28 23 18 15 15 12 10 11 12 12 10 9 9 7 5 3 2 0 358 357 356 354 352 350 346 344 342 339 335 331 327 323 320 317 313 309 305 302 299 299 299 297 295 293 287 282 277 269 264 263 260 257 252 249 247 245 242 240 238 236 234 231 227 223 222 221 220 218 217 216 215 215 214 214 214 214
78 75 70 64 58 53 47 41 34 28 22 19 17 15 10 10 14 15 14 12 11 11 10 9 7 5 3 360 357 357 355 352 349 346 343 340 337 332 329 327 325 322 318 315 312 308 304 301 300 301 299 297 295 291 286 280 271 265 259 253 254 255 250 248 246 244 241 236 234 233 230 227 224 223 222 221 220 218 218 217 216 215 215 214 214
80 76 72 67 61 55 50 43 36 29 23 22 22 18 12 12 17 19 16 14 13 14 12 10 9 7 4 1 358 356 354 351 348 345 342 339 335 330 327 326 324 322 319 316 314 310 306 304 302 301 301 300 298 295 292 287 277 267 257 247 248 252 248 246 245 243 239 233 230 230 229 228 226 224 223 222 221 220 219 218 217 216 216 215 215
78 76 74 70 64 57 51 45 38 31 27 26 28 25 17 13 14 15 18 17 16 16 14 12 11 8 5 2 357 354 351 347 345 342 340 338 334 329 327 325 321 318 316 313 311 309 306 304 304 303 302 302 302 299 296 292 282 271 260 248 246 249 245 243 244 242 235 229 226 226 227 227 225 223 223 222 222 222 220 219 218 217 216 216 216
78 77 74 70 65 58 52 47 39 33 30 31 34 31 24 20 14 11 18 21 18 17 16 13 12 9 5 0 355 352 347 343 343 340 335 335 334 329 326 322 319 317 314 313 313 310 307 306 307 308 306 303 302 302 302 297 292 288 276 257 246 247 245 243 243 240 234 228 226 224 223 223 222 220 219 220 221 222 220 219 218 217 216 216 217
79 76 74 70 65 59 52 46 40 34 31 33 42 44 37 31 22 14 19 23 21 20 17 14 12 8 5 0 354 351 348 345 343 338 333 335 336 333 330 325 322 321 318 318 319 316 313 313 315 314 309 303 301 300 301 299 299 299 290 269 252 245 242 242 241 238 234 228 225 225 222 221 219 217 216 218 219 220 219 218 218 217 216 216 217
78 74 73 71 65 61 54 47 41 34 30 34 46 49 45 39 30 22 22 25 24 22 19 15 12 8 4 1 357 354 352 350 345 339 335 337 338 339 339 337 334 330 326 326 328 327 325 322 318 314 308 303 302 300 299 300 299 300 299 292 277 254 234 234 241 238 234 228 223 226 226 222 218 215 215 217 219 219 218 217 217 217 217 217 217
76 73 71 71 67 63 56 48 42 34 30 34 44 47 46 44 37 28 24 28 26 23 20 16 13 10 5 1 359 357 355 353 349 343 339 338 340 342 343 342 341 340 337 335 335 333 328 323 318 316 312 307 304 303 302 303 302 301 302 301 292 272 244 230 236 237 235 230 223 224 228 224 218 215 216 218 218 219 219 218 217 217 217 217 217
76 73 70 69 66 63 58 50 43 34 30 33 41 45 45 44 40 34 28 30 29 23 20 17 14 12 7 2 1 360 358 356 353 348 343 340 341 342 343 343 342 344 344 343 341 337 330 323 318 317 317 313 307 303 302 303 304 302 297 295 294 284 260 233 231 238 237 230 222 221 227 225 216 213 217 220 220 219 220 219 218 217 216 216 216
78 75 71 68 65 63 59 53 45 36 31 32 39 45 45 42 41 40 34 31 30 25 21 19 17 13 9 7 5 4 2 359 357 354 349 344 344 344 344 344 342 343 344 344 344 343 338 330 324 320 320 318 312 307 305 303 302 300 294 290 290 289 277 254 242 240 237 229 221 219 225 225 214 210 216 221 220 219 220 219 218 217 216 215 215
81 77 72 68 66 65 61 57 49 38 32 33 38 44 45 43 42 42 36 29 28 28 24 22 18 15 14 14 11 10 9 4 3 3 358 350 349 348 346 345 343 341 342 342 342 343 342 339 333 328 326 326 323 318 316 310 304 303 299 289 284 286 285 271 248 234 233 231 225 218 221 226 215 209 214 218 218 219 220 220 219 218 216 215 216
87 82 76 70 66 65 63 59 52 41 33 33 38 41 44 43 39 35 32 27 24 26 26 22 21 24 26 23 19 16 12 8 7 9 6 0 357 355 351 348 347 345 343 342 340 341 346 348 345 339 337 339 338 335 334 326 316 317 313 294 282 283 279 264 237 224 228 229 224 219 220 225 216 211 215 215 215 218 219 219 220 220 218 217 217
94 88 82 74 68 65 62 59 55 44 34 33 37 40 42 41 31 21 22 26 24 24 25 22 25 30 26 22 20 17 9 6 9 11 12 10 5 1 357 353 352 351 350 348 345 345 351 356 356 351 349 351 354 353 352 347 340 338 329 305 292 291 276 248 216 223 225 223 225 221 220 225 217 211 212 209 210 216 219 220 223 224 223 220 218
100 94 89 83 75 69 63 58 56 49 37 33 36 39 40 39 30 17 15 23 23 22 23 20 23 26 17 13 17 16 8 6 10 14 15 14 9 4 0 357 357 356 353 352 353 354 357 2 4 360 357 359 3 2 359 357 357 358 351 335 328 322 297 258 235 229 215 214 222 219 217 223 215 207 200 192 201 212 215 218 222 227 228 224 221
102 96 93 91 84 77 70 61 55 53 43 34 34 37 37 37 33 23 16 17 17 19 21 18 18 20 15 10 13 14 11 8 10 14 15 14 12 7 3 0 358 356 353 352 356 359 0 2 4 0 357 1 6 4 2 2 4 6 6 3 2 353 337 335 331 273 205 201 219 213 211 216 205 196 187 171 179 209 208 213 218 223 228 225 222